Home   Weather   Latakia   Past weeks
Flag for Syria

Past Weather in Latakia, Syria — Yesterday and Last 2 Weeks

Now
73 °F

Passing clouds.


Feels Like: 77 °F
Forecast: 82 / 72 °F
Wind: 5 mph from Southeast

Location: Lattakia Airport

Current Time: Oct 16, 2019 at 11:02:21 pm

Latest Report: Oct 16, 2019 at 10:00 pm


Visibility: N/A

Pressure: 29.95 "Hg

Humidity: 57%

Dew Point: 57 °F

Location of LatakiaLocation

Past Weather in Latakia — Graph

°F

Latakia Temperature Yesterday

Maximum temperature yesterday: 100 °F (at 1:00 pm)
Minimum temperature yesterday: 79 °F (at 7:00 am)
Average temperature yesterday: 87 °F

High & Low Weather Summary for the Past Weeks

 TemperatureHumidityPressure
High100 °F (Oct 14, 2:00 pm)88% (Oct 1, 10:00 pm)30.07 "Hg (Oct 1, 10:00 pm)
Low63 °F (Oct 4, 7:00 am)14% (Oct 13, 4:00 pm)29.80 "Hg (Oct 6, 3:00 pm)
Average78 °F59%29.94 "Hg
* Reported Oct 1 10:00 pm — Oct 16 10:00 pm, Latakia. Weather by CustomWeather, © 2019

Note: Actual official high and low records may vary slightly from our data, if they occured in-between our weather recording intervals... More about our weather records

Advertising

Latakia Weather History for the Previous 24 Hours

Scroll right to see more
 ConditionsComfort  
Time TempWeatherWind HumidityBarometerVisibility
10:00 pm
Wed, Oct 16
73 °FPassing clouds.5 mph57%29.95 "HgN/A
9:00 pm75 °FPassing clouds.5 mph54%29.95 "HgN/A
8:00 pm79 °FPassing clouds.5 mph45%29.95 "HgN/A
7:00 pm81 °FPassing clouds.7 mph51%29.92 "HgN/A
6:00 pm86 °FPartly cloudy.7 mph43%29.92 "HgN/A
5:00 pm90 °FBroken clouds.12 mph36%29.89 "HgN/A
4:00 pm93 °FScattered clouds.7 mph34%29.89 "HgN/A
3:00 pm91 °FBroken clouds.9 mph32%29.92 "HgN/A
2:00 pm91 °FScattered clouds.9 mph28%29.92 "HgN/A
1:00 pm93 °FBroken clouds.3 mph26%29.95 "HgN/A
12:00 pm90 °FBroken clouds.7 mph36%29.95 "HgN/A
11:00 am88 °FBroken clouds.3 mph33%29.95 "HgN/A
10:00 am82 °FBroken clouds.5 mph48%29.98 "HgN/A
9:00 am81 °FBroken clouds.3 mph42%29.95 "HgN/A
8:00 am73 °FScattered clouds.3 mph57%29.92 "HgN/A
7:00 am73 °FScattered clouds.3 mph53%29.92 "HgN/A
5:00 am77 °FPassing clouds.5 mph47%29.89 "HgN/A
4:00 am79 °FPassing clouds.7 mph48%29.89 "HgN/A
3:00 am77 °FPassing clouds.9 mph57%29.95 "HgN/A
2:00 am79 °FPassing clouds.7 mph58%29.98 "HgN/A
1:00 am77 °FPassing clouds.7 mph69%30.01 "HgN/A
12:00 am79 °FPassing clouds.7 mph65%30.04 "HgN/A
11:00 pm
Tue, Oct 15
79 °FPassing clouds.12 mph70%30.04 "HgN/A
Weather by CustomWeather, © 2019

See weather overview